STARLINK-32038, 60281

Orbit data source: Space-Track

STARLINK-32038, 60281 is a payload satellite owned by SpaceX/Seattle (US) in LEO that was launched on Sun, 28 Jul 2024 UTC via an FALCON 9 launch vehicle from the Air Force Eastern Test Range (AFETR). Payload-class satellites include a variety of spacecraft equipped with specific instruments for various scientific and technological missions. These include communications satellites like Starlink; space stations such as the ISS; scientific satellites like the Hubble; Earth observation satellites from companies like Planet Labs, Umbra, and HawkEye 360; GPS; miniature CubeSats for education and research; and military/defense satellites.

Loading next visibility...
Identifier
60281, 2024-132D
Orbit
LEO
Country
Flag of USUS
Related business
Manufacturer
SpaceX/Seattle
Mission
Operational Commercial Communications
Bus & Motor
STARLINK V2M, Unknown motor
Mass
730 kg wet, ~700 kg dry
Launch date (UTC)
2024-07-28 (2 years ago)
Launch vehicle
FALCON 9
Launch site
Air Force Eastern Test Range (AFETR)
Object type
Payload
Rocket body
Debris
Shape & HBR
Box + 2 Pan, 17.7 m
Radar Cross Section
33.884 m², Large (>1 m²)

Expand to show TLE details & history
Last TLE update: 1 day ago

TLE from 1 day ago
0 STARLINK-32038
1 60281U 24132D   26173.59412041  .00009899  00000-0  34652-3 0  9992
2 60281  53.1606 285.0256 0001513  84.0492 276.0681 15.30142017107625
Epoch: 2026-06-22T14:15Z
TLE epoch observation values (Epoch: 2026-06-22T14:15:32.003Z)
Latitude
-0.00003°
Longitude
160.36443°
Altitude
476.178 km
Speed
7.629 km/s
True Right ascension
19h 00m 06s
True Declination
0° 00' 00"
Sunlit
Object was in full shadow at epoch
Visualization orbit readout
Latitude
Unknown
Longitude
Unknown
Altitude
Unknown
Speed
Unknown
Apparent Right ascension
Unknown
Apparent Declination
Unknown
Sunlit
N/A
Visualization observer readout
Local Sidereal Time
09:42:07
Azimuth
Unknown
Elevation
Unknown
Doppler factor
Unknown
Orbital elements
Apogee altitude
476.682 km
Perigee altitude
474.608 km
Semi-major axis
6,853.782 km
Eccentricity
0.00015
Inclination
53.1606°
RAAN
285.0256°
Arg. of periapsis
84.0492°
True anomaly
276.05086°
Mean anomaly
276.0681°
Eccentric anomaly
276.05948°
Mean motion
3.82514 °/min
Orbital period
94.11 mins
BSTAR
0.00034652
Loading maneuver chart data...
Computing Atmospheric mass density...
Loading historical data...
Loading historical data...
Loading historical data...
Loading historical data...
Loading historical data...
Loading historical data...
Loading historical data...

Documentation

Showing up to 5 results
|